Location: Newark
(13.0494°N, 109.3336°E)
Time: 05:14:40
(UTC+00:00)

LightSail 2 - Visible Passes

Search period start: 13 December 2019 00:00
Search period end: 23 December 2019 00:00
Orbit: 696 x 730 km, 24.0° (Epoch: 12 December)

Date Brightness Start Highest point End Pass type
(mag) Time Alt. Az. Time Alt. Az. Time Alt. Az.
13 Dec 5.9 11:50:50 10° W 11:55:48 48° SSW 11:58:18 26° SE visible
14 Dec 5.5 10:52:32 10° WNW 10:57:43 69° SSW 11:02:49 10° ESE visible
14 Dec 7.3 12:39:30 10° WSW 12:43:06 19° SSW 12:43:45 19° SSW visible
15 Dec 7.0 11:40:38 10° W 11:45:00 27° SSW 11:49:20 10° SSE visible
16 Dec 6.6 10:42:02 10° W 10:46:54 39° SSW 10:51:42 10° SE visible
16 Dec 8.1 12:31:40 10° SW 12:32:20 10° SSW 12:33:00 10° SSW visible
17 Dec 7.8 11:31:08 10° WSW 11:34:10 16° SSW 11:37:13 10° S visible
17 Dec 7.9 22:13:32 10° S 22:15:39 12° SSE 22:17:47 10° SE visible
19 Dec 7.4 22:00:54 10° SSW 22:04:49 22° SSE 22:08:47 10° ESE visible
20 Dec 7.7 21:03:45 10° S 21:06:42 15° SSE 21:09:39 10° ESE visible
21 Dec 8.1 20:08:57 10° SSE 20:08:57 10° SSE 20:09:04 10° SSE visible
21 Dec 6.4 21:49:15 10° SW 21:53:57 39° SSE 21:58:41 10° E visible
22 Dec 6.8 20:54:26 24° S 20:55:50 27° SSE 21:00:06 10° E visible
22 Dec 5.1 22:36:10 10° WSW 22:41:14 84° NNW 22:46:20 10° ENE visible
